Location: Oroua River
(40.4333°S, 175.4333°E)
Time: 12:23:55
(UTC+00:00)

Cosmos 2227 Rocket - Pass Details

Date: 03 February 2023
Orbit: 839 x 844 km, 71.0° (Epoch: 31 March)

Event Time Altitude Azimuth Distance (km) Brightness Sun altitude
Rises 15:44:36 0° 197° (SSW) 3,429 5.7 -17.7°
Reaches altitude 10° 15:47:15 10° 189° (S) 2,489 5.1 -17.3°
Maximum altitude 15:52:34 39° 121° (ESE) 1,263 3.7 -16.5°
Drops below altitude 10° 15:57:50 10° 52° (NE) 2,465 4.8 -15.7°
Sets 16:00:26 0° 44° (NE) 3,393 5.4 -15.3°
